period_start,C,m1,H,J0,J1,J2,J3,J4,J5,JA,JB,JC,JD,JJ,JK,JN,#
2014-06-14 00:04:32,0.00,0.70,0.00,24.00,27.95,30.37,9.36,38.77,999.53,2037.97,3199.96,3118.98,3386.25,500.12,486.83,28.55,0000 0000 0000 0000 000000
2014-06-14 00:09:33,-0.00,0.70,0.00,24.00,27.95,30.44,9.40,39.17,999.53,2037.95,3199.96,3118.92,3386.12,500.21,486.97,28.59,0000 0000 0000 0000 000000
2014-06-14 00:14:34,-0.00,0.70,0.00,24.01,27.95,30.52,9.38,39.41,999.55,2037.87,3199.97,3118.52,3386.03,499.84,486.64,28.63,0000 0000 0000 0000 000000
2014-06-14 00:19:35,0.01,0.70,0.00,24.05,27.95,30.51,9.37,39.09,999.59,2037.81,3199.97,3118.47,3386.01,499.95,486.87,28.67,0000 0000 0000 0000 000000
2014-06-14 00:24:36,-0.00,0.70,0.00,24.11,27.95,30.45,9.35,38.79,999.56,2037.76,3199.98,3118.14,3386.00,499.68,486.23,28.72,0000 0000 0000 0000 000000
2014-06-14 00:29:37,-0.01,0.70,0.00,24.17,27.96,30.34,9.28,38.52,999.56,2037.58,3199.98,3118.07,3386.00,499.70,486.11,28.76,0000 0000 0000 0000 000000
2014-06-14 00:34:39,-0.02,0.70,0.00,24.22,27.97,30.32,9.36,38.94,999.55,2037.57,3199.99,3118.05,3386.00,500.44,486.85,28.80,0000 0000 0000 0000 000000
2014-06-14 00:39:40,-0.04,0.69,0.00,24.27,27.99,30.32,9.33,39.13,999.82,2037.17,3199.98,3118.01,3386.00,500.02,486.38,28.84,0000 0000 0000 0000 000000
2014-06-14 00:44:41,-0.01,0.69,0.00,24.31,28.00,30.33,9.35,38.92,1000.00,2037.08,3199.99,3118.00,3385.99,500.04,486.47,28.88,0000 0000 0000 0000 000000
2014-06-14 00:49:42,-0.00,0.69,0.00,24.35,28.02,30.35,9.39,39.24,1000.01,2037.02,3199.94,3118.00,3385.93,500.05,486.43,28.92,0000 0000 0000 0000 000000
2014-06-14 00:54:43,0.01,0.69,0.00,24.39,28.05,30.38,9.41,39.21,1000.01,2037.00,3199.57,3117.98,3385.56,500.39,486.70,28.97,0000 0000 0000 0000 000000
2014-06-14 00:59:44,0.02,0.70,0.00,24.43,28.07,30.39,9.37,38.98,1000.01,2037.00,3199.32,3117.69,3385.14,500.16,486.32,29.01,0000 0000 0000 0000 000000
2014-06-14 01:04:45,0.02,0.70,0.00,24.49,28.10,30.41,9.36,39.31,999.97,2036.98,3199.13,3117.10,3385.00,500.15,486.23,29.05,0000 0000 0000 0000 000000
2014-06-14 01:09:46,0.00,0.70,0.00,24.56,28.12,30.44,9.33,39.16,1000.00,2036.96,3199.04,3117.00,3384.99,500.13,486.01,29.09,0000 0000 0000 0000 000000
2014-06-14 01:14:47,-0.02,0.70,0.00,24.62,28.16,30.47,9.34,39.17,1000.00,2036.76,3199.02,3116.97,3384.95,500.01,485.98,29.13,0000 0000 0000 0000 000000
2014-06-14 01:19:48,-0.04,0.69,0.00,24.69,28.18,30.51,9.29,39.02,1000.00,2036.31,3199.01,3116.94,3384.64,499.91,485.83,29.18,0000 0000 0000 0000 000000
2014-06-14 01:24:49,0.01,0.69,0.00,24.74,28.21,30.55,9.34,39.42,1000.01,2036.03,3199.00,3116.44,3384.06,499.50,485.46,29.22,0000 0000 0000 0000 000000
2014-06-14 01:29:50,0.00,0.69,0.00,24.78,28.25,30.59,9.34,39.59,1000.02,2036.00,3199.00,3116.04,3384.00,499.64,485.45,29.26,0000 0000 0000 0000 000000
2014-06-14 01:34:51,0.00,0.69,0.00,24.83,28.29,30.62,9.39,39.46,1000.13,2036.00,3198.99,3116.00,3383.99,500.25,485.95,29.30,0000 0000 0000 0000 000000
2014-06-14 01:39:52,0.01,0.69,0.00,24.87,28.32,30.67,9.38,39.36,1000.29,2035.98,3198.91,3115.97,3383.75,500.26,485.88,29.34,0000 0000 0000 0000 000000
2014-06-14 01:44:53,0.02,0.70,0.00,24.91,28.36,30.72,9.33,39.54,1000.50,2035.83,3198.65,3115.45,3383.11,499.83,485.56,29.39,0000 0000 0000 0000 000000
2014-06-14 01:49:54,-0.05,0.69,0.00,24.95,28.40,30.76,9.34,39.42,1000.51,2035.30,3198.30,3115.16,3382.88,500.03,485.67,29.43,0000 0000 0000 0000 000000
2014-06-14 01:54:55,0.02,0.69,0.00,24.97,28.44,30.81,9.35,39.65,1000.57,2035.02,3198.00,3114.67,3382.08,500.26,485.74,29.47,0000 0000 0000 0000 000000
2014-06-14 01:59:56,0.01,0.69,0.00,25.00,28.47,30.85,9.37,39.64,1000.88,2035.00,3197.97,3114.12,3382.00,500.00,485.81,29.51,0000 0000 0000 0000 000000
2014-06-14 02:04:58,0.01,0.69,0.00,25.01,28.51,30.88,9.33,39.69,1000.99,2034.99,3197.59,3114.00,3381.91,499.67,485.48,29.55,0000 0000 0000 0000 000000
2014-06-14 02:09:59,0.01,0.70,0.00,25.02,28.55,30.93,9.35,39.52,1001.02,2034.92,3197.05,3113.93,3381.13,500.17,485.85,29.59,0000 0000 0000 0000 000000
2014-06-14 02:15:00,-0.03,0.70,0.00,25.03,28.58,30.97,9.41,39.60,1001.21,2034.51,3196.92,3113.23,3380.93,500.46,486.04,29.64,0000 0000 0000 0000 000000
2014-06-14 02:20:01,0.03,0.70,0.00,25.05,28.62,31.00,9.36,39.66,1001.08,2034.05,3196.07,3112.10,3380.03,500.01,485.89,29.68,0000 0000 0000 0000 000000
2014-06-14 02:25:02,0.01,0.70,0.00,25.04,28.65,31.04,9.33,39.57,1001.03,2034.00,3195.97,3112.00,3379.37,499.67,485.53,29.72,0000 0000 0000 0000 000000
2014-06-14 02:30:03,0.02,0.70,0.00,25.03,28.68,31.08,9.38,39.59,1000.99,2034.00,3195.58,3111.79,3379.03,499.90,485.62,29.76,0000 0000 0000 0000 000000
2014-06-14 02:35:05,0.02,0.70,0.00,25.05,28.71,31.11,9.34,39.63,1001.00,2033.99,3195.05,3111.16,3378.99,499.95,485.89,29.80,0000 0000 0000 0000 000000
2014-06-14 02:40:06,0.00,0.70,0.00,25.04,28.74,31.14,9.35,39.82,1001.12,2033.90,3194.99,3110.96,3378.42,500.50,486.26,29.85,0000 0000 0000 0000 000000
2014-06-14 02:45:07,-0.03,0.70,0.00,25.02,28.77,31.18,9.34,39.61,1001.52,2033.41,3194.73,3110.45,3378.00,500.06,485.95,29.89,0000 0000 0000 0000 000000
2014-06-14 02:50:09,0.00,0.70,0.00,25.02,28.79,31.20,9.34,39.66,1001.84,2033.10,3194.20,3110.04,3377.90,500.00,486.15,29.93,0000 0000 0000 0000 000000
2014-06-14 02:55:09,0.01,0.70,0.00,25.02,28.81,31.23,9.42,39.83,1001.96,2033.02,3194.01,3109.99,3377.23,500.08,486.16,29.97,0000 0000 0000 0000 000000
2014-06-14 03:00:10,0.00,0.70,0.00,25.02,28.83,31.25,9.35,39.95,1002.09,2033.00,3193.99,3109.94,3377.01,499.91,486.33,30.01,0000 0000 0000 0000 000000
2014-06-14 03:05:11,0.01,0.70,0.00,25.02,28.85,31.26,9.35,39.73,1002.44,2033.00,3193.96,3109.78,3377.00,499.54,485.93,30.06,0000 0000 0000 0000 000000
2014-06-14 03:10:13,0.02,0.70,0.00,25.02,28.87,31.27,9.29,39.71,1002.31,2033.00,3193.82,3109.26,3376.98,499.72,486.19,30.10,0000 0000 0000 0000 000000
2014-06-14 03:15:14,0.00,0.70,0.00,24.99,28.89,31.28,9.38,39.83,1002.33,2032.98,3193.64,3109.05,3376.83,499.93,486.32,30.14,0000 0000 0000 0000 000000
2014-06-14 03:20:15,0.00,0.70,0.00,24.98,28.90,31.30,9.40,39.72,1002.44,2032.93,3193.52,3109.00,3376.38,500.11,486.73,30.18,0000 0000 0000 0000 000000
2014-06-14 03:25:16,0.00,0.70,0.00,24.98,28.92,31.31,9.25,39.33,1002.80,2032.82,3193.03,3108.92,3376.01,499.81,486.50,30.22,0000 0000 0000 0000 000000
2014-06-14 03:30:17,-0.02,0.70,0.00,25.00,28.93,31.32,9.43,39.55,1002.91,2032.57,3193.00,3108.61,3376.00,500.13,486.89,30.26,0000 0000 0000 0000 000000
2014-06-14 03:35:18,-0.02,0.70,0.00,25.00,28.95,31.33,9.43,39.32,1002.93,2032.31,3192.99,3108.10,3375.92,500.11,486.84,30.31,0000 0000 0000 0000 000000
2014-06-14 03:40:19,-0.00,0.70,0.00,25.01,28.95,31.34,9.36,39.28,1002.94,2032.07,3192.99,3108.01,3375.73,499.61,486.35,30.35,0000 0000 0000 0000 000000
2014-06-14 03:45:20,0.01,0.70,0.00,25.02,28.97,31.35,9.37,39.26,1002.93,2032.04,3192.89,3108.00,3375.32,499.97,486.60,30.39,0000 0000 0000 0000 000000
2014-06-14 03:50:21,0.00,0.70,0.00,25.03,28.97,31.35,9.35,39.33,1002.94,2032.04,3192.91,3108.00,3375.10,499.79,486.47,30.43,0000 0000 0000 0000 000000
2014-06-14 03:55:23,0.00,0.70,0.00,25.02,28.99,31.36,9.29,39.33,1003.16,2032.00,3192.69,3107.98,3375.01,499.51,486.06,30.47,0000 0000 0000 0000 000000
2014-06-14 04:00:24,0.01,0.70,0.00,25.02,29.00,31.37,9.43,39.27,1003.40,2032.00,3192.36,3107.95,3375.00,500.04,486.93,30.52,0000 0000 0000 0000 000000
2014-06-14 04:05:25,0.01,0.70,0.00,25.02,29.00,31.38,9.39,39.16,1003.43,2032.00,3192.08,3107.77,3375.00,500.35,487.29,30.56,0000 0000 0000 0000 000000
2014-06-14 04:10:26,0.01,0.70,0.00,25.01,29.02,31.40,9.36,39.27,1003.44,2032.00,3192.01,3107.27,3374.99,499.86,487.01,30.60,0000 0000 0000 0000 000000
2014-06-14 04:15:27,0.00,0.70,0.00,25.00,29.02,31.40,9.36,39.19,1003.43,2032.00,3192.00,3107.21,3374.97,499.98,486.96,30.64,0000 0000 0000 0000 000000
2014-06-14 04:20:28,0.01,0.70,0.00,25.00,29.03,31.41,9.39,39.38,1003.43,2032.00,3192.01,3107.12,3374.96,499.72,486.68,30.68,0000 0000 0000 0000 000000
2014-06-14 04:25:29,0.00,0.70,0.00,24.99,29.05,31.46,9.43,39.13,1003.58,2032.00,3192.00,3107.04,3374.72,500.12,487.31,30.73,0000 0000 0000 0000 000000
2014-06-14 04:30:30,0.00,0.70,0.00,24.98,29.05,31.46,9.40,39.24,1003.87,2032.00,3192.00,3107.01,3374.46,500.37,487.85,30.77,0000 0000 0000 0000 000000
2014-06-14 04:35:31,0.00,0.70,0.00,24.98,29.05,31.47,9.33,39.30,1003.92,2032.00,3192.00,3107.00,3374.32,500.00,487.17,30.81,0000 0000 0000 0000 000000
2014-06-14 04:40:32,0.00,0.70,0.00,24.97,29.05,31.50,9.43,39.38,1003.95,2031.99,3191.99,3107.00,3374.10,500.19,487.54,30.85,0000 0000 0000 0000 000000
2014-06-14 04:45:33,0.00,0.70,0.00,24.95,29.06,31.50,9.36,39.18,1004.22,2031.99,3191.98,3107.00,3374.10,499.46,486.89,30.89,0000 0000 0000 0000 000000
2014-06-14 04:50:34,0.00,0.70,0.00,24.95,29.07,31.53,9.38,39.26,1004.21,2031.99,3191.98,3107.00,3374.04,500.13,487.60,30.94,0000 0000 0000 0000 000000
2014-06-14 04:55:36,0.00,0.70,0.00,24.94,29.07,31.53,9.43,39.63,1003.93,2031.97,3191.96,3107.00,3374.01,500.24,487.41,30.98,0000 0000 0000 0000 000000
2014-06-14 05:00:37,0.01,0.70,0.00,24.92,29.07,31.53,9.46,39.38,1003.92,2031.98,3191.76,3106.98,3374.00,500.19,487.41,31.02,0000 0000 0000 0000 000000
2014-06-14 05:05:38,0.00,0.70,0.00,24.91,29.07,31.55,9.40,39.38,1003.92,2031.97,3191.60,3106.98,3374.00,500.29,487.53,31.06,0000 0000 0000 0000 000000
2014-06-14 05:10:39,-0.00,0.70,0.00,24.89,29.07,31.55,9.44,39.28,1003.96,2031.96,3191.41,3106.97,3374.00,500.38,487.60,31.10,0000 0000 0000 0000 000000
2014-06-14 05:15:40,0.00,0.70,0.00,24.87,29.07,31.57,9.38,39.33,1004.31,2031.98,3191.44,3106.96,3374.00,499.95,487.34,31.14,0000 0000 0000 0000 000000
2014-06-14 05:20:42,0.01,0.70,0.00,24.85,29.07,31.59,9.37,39.15,1004.41,2031.99,3191.24,3106.91,3374.00,499.93,487.49,31.19,0000 0000 0000 0000 000000
2014-06-14 05:25:43,-0.00,0.70,0.00,24.83,29.06,31.60,9.36,38.99,1004.43,2031.98,3191.12,3106.82,3373.99,500.06,487.95,31.23,0000 0000 0000 0000 000000
2014-06-14 05:30:44,0.02,0.70,0.00,24.81,29.05,31.62,9.31,39.14,1004.41,2031.98,3191.03,3106.39,3373.94,499.58,487.38,31.27,0000 0000 0000 0000 000000
2014-06-14 05:35:45,-0.00,0.70,0.00,24.79,29.05,31.63,9.39,39.27,1004.39,2031.98,3191.02,3106.27,3373.94,499.91,487.64,31.31,0000 0000 0000 0000 000000
2014-06-14 05:40:46,0.01,0.70,0.00,24.76,29.05,31.64,9.42,39.28,1004.35,2031.98,3191.00,3106.11,3373.74,500.34,488.13,31.35,0000 0000 0000 0000 000000
2014-06-14 05:45:47,-0.00,0.70,0.00,24.75,29.05,31.66,9.45,39.30,1004.21,2031.98,3191.00,3106.07,3373.69,500.53,488.14,31.40,0000 0000 0000 0000 000000
2014-06-14 05:50:48,-0.00,0.70,0.00,24.72,29.03,31.64,9.40,39.53,1004.17,2031.98,3190.99,3106.04,3373.62,499.99,487.77,31.44,0000 0000 0000 0000 000000
2014-06-14 05:55:49,0.00,0.70,0.00,24.71,29.02,31.63,9.34,39.13,1004.27,2031.99,3190.99,3106.06,3373.48,499.62,487.32,31.48,0000 0000 0000 0000 000000
2014-06-14 06:00:51,0.00,0.70,0.00,24.70,29.02,31.62,9.38,39.37,1004.42,2031.99,3190.97,3106.06,3373.39,499.76,487.67,31.52,0000 0000 0000 0000 000000
2014-06-14 06:05:51,-0.00,0.70,0.00,24.68,29.01,31.63,9.41,39.09,1004.70,2031.99,3190.97,3106.03,3373.24,499.89,488.12,31.56,0000 0000 0000 0000 000000
2014-06-14 06:10:53,0.00,0.70,0.00,24.67,29.00,31.61,9.47,39.26,1004.95,2031.99,3190.92,3106.05,3373.29,500.12,488.51,31.61,0000 0000 0000 0000 000000
2014-06-14 06:15:53,0.01,0.70,0.00,24.66,29.00,31.59,9.53,39.57,1005.29,2031.99,3190.69,3106.01,3373.13,500.22,488.59,31.65,0000 0000 0000 0000 000000
2014-06-14 06:20:54,0.01,0.70,0.00,24.64,28.98,31.59,9.47,39.23,1005.39,2031.99,3190.36,3106.01,3373.09,500.11,488.64,31.69,0000 0000 0000 0000 000000
2014-06-14 06:25:55,0.00,0.70,0.00,24.64,28.97,31.58,9.44,39.17,1005.54,2031.99,3190.32,3106.01,3373.12,500.43,488.94,31.73,0000 0000 0000 0000 000000
2014-06-14 06:30:56,0.00,0.70,0.00,24.62,28.95,31.56,9.37,39.27,1005.78,2031.99,3190.14,3106.01,3373.07,499.55,488.21,31.77,0000 0000 0000 0000 000000
2014-06-14 06:35:57,0.00,0.70,0.00,24.62,28.95,31.56,9.56,39.26,1005.78,2031.99,3190.08,3106.00,3373.03,500.13,488.80,31.82,0000 0000 0000 0000 000000
2014-06-14 06:40:58,0.00,0.70,0.00,24.62,28.94,31.54,9.50,39.37,1005.55,2031.99,3190.02,3106.00,3373.00,500.37,489.08,31.86,0000 0000 0000 0000 000000
2014-06-14 06:45:59,0.02,0.71,0.00,24.60,28.92,31.52,9.44,39.19,1005.41,2031.99,3189.70,3105.90,3372.86,499.83,488.30,31.90,0000 0000 0000 0000 000000
2014-06-14 06:51:00,0.02,0.71,0.00,24.60,28.92,31.51,9.40,39.08,1005.56,2032.00,3189.23,3105.68,3372.58,499.83,488.35,31.94,0000 0000 0000 0000 000000
2014-06-14 06:56:01,0.02,0.71,0.00,24.58,28.90,31.50,9.42,39.04,1005.80,2032.00,3189.03,3105.27,3372.11,499.83,488.85,31.98,0000 0000 0000 0000 000000
2014-06-14 07:01:03,0.00,0.71,0.00,24.57,28.90,31.49,9.45,39.02,1005.86,2032.01,3189.00,3105.04,3372.01,500.26,489.13,32.02,0000 0000 0000 0000 000000
2014-06-14 07:06:04,-0.00,0.71,0.00,24.56,28.88,31.47,9.50,39.32,1005.85,2032.03,3188.99,3105.01,3372.00,500.21,488.98,32.07,0000 0000 0000 0000 000000
2014-06-14 07:11:05,0.00,0.71,0.00,24.53,28.87,31.45,9.42,39.20,1005.67,2032.02,3188.94,3105.00,3371.99,500.14,488.99,32.11,0000 0000 0000 0000 000000
2014-06-14 07:16:06,0.02,0.71,0.00,24.51,28.86,31.46,9.44,39.60,1005.52,2032.14,3188.91,3105.00,3371.99,500.29,489.07,32.15,0000 0000 0000 0000 000000
2014-06-14 07:21:07,0.02,0.71,0.00,24.48,28.85,31.46,9.37,39.66,1005.63,2032.24,3188.54,3105.00,3371.96,499.69,488.58,32.19,0000 0000 0000 0000 000000
2014-06-14 07:26:08,0.06,0.71,0.00,24.46,28.82,31.45,9.44,39.58,1005.86,2032.50,3188.08,3104.98,3371.75,499.79,488.86,32.23,0000 0000 0000 0000 000000
2014-06-14 07:31:09,0.04,0.71,0.00,24.43,28.81,31.43,9.50,39.76,1005.75,2032.86,3188.00,3104.94,3371.22,499.84,489.02,32.27,0000 0000 0000 0000 000000
2014-06-14 07:36:11,0.02,0.71,0.00,24.41,28.80,31.42,9.44,39.66,1005.75,2032.92,3187.98,3104.65,3371.03,499.64,488.87,32.32,0000 0000 0000 0000 000000
2014-06-14 07:41:12,0.01,0.72,0.00,24.38,28.78,31.41,9.47,39.63,1005.64,2032.95,3187.89,3104.22,3371.00,500.09,489.10,32.36,0000 0000 0000 0000 000000
2014-06-14 07:46:13,0.01,0.72,0.00,24.35,28.77,31.38,9.37,39.80,1005.41,2032.96,3187.48,3104.06,3371.00,500.11,488.91,32.40,0000 0000 0000 0000 000000
2014-06-14 07:51:14,0.01,0.72,0.00,24.33,28.75,31.38,9.43,39.77,1005.36,2032.98,3187.02,3104.00,3370.76,499.64,488.72,32.44,0000 0000 0000 0000 000000
2014-06-14 07:56:15,0.00,0.72,0.00,24.30,28.73,31.35,9.49,39.95,1005.12,2032.99,3187.01,3104.00,3370.64,500.14,489.09,32.48,0000 0000 0000 0000 000000
2014-06-14 08:01:17,0.00,0.72,0.00,24.28,28.71,31.33,9.45,39.90,1005.33,2032.99,3186.99,3103.98,3370.24,499.92,489.04,32.52,0000 0000 0000 0000 000000
2014-06-14 08:06:18,0.00,0.72,0.00,24.26,28.70,31.33,9.48,40.15,1005.34,2032.99,3186.93,3103.94,3370.02,499.57,488.97,32.56,0000 0000 0000 0000 000000
2014-06-14 08:11:19,0.01,0.72,0.00,24.23,28.67,31.30,9.44,39.91,1005.72,2032.99,3186.64,3103.85,3370.00,500.05,489.51,32.61,0000 0000 0000 0000 000000
2014-06-14 08:16:20,0.03,0.72,0.00,24.21,28.66,31.28,9.50,39.83,1005.90,2033.00,3186.07,3103.45,3369.99,500.30,489.74,32.65,0000 0000 0000 0000 000000
2014-06-14 08:21:21,0.01,0.72,0.00,24.17,28.64,31.25,9.36,39.74,1006.11,2033.01,3186.00,3103.08,3369.97,499.78,489.38,32.69,0000 0000 0000 0000 000000
2014-06-14 08:26:23,0.00,0.72,0.00,24.15,28.62,31.23,9.38,39.47,1006.29,2033.05,3185.97,3103.02,3369.86,499.89,489.73,32.73,0000 0000 0000 0000 000000
2014-06-14 08:31:24,0.03,0.72,0.00,24.11,28.60,31.22,9.38,39.56,1006.31,2033.19,3185.89,3103.00,3369.37,500.06,489.94,32.77,0000 0000 0000 0000 000000
2014-06-14 08:36:25,0.10,0.72,0.00,24.08,28.57,31.20,9.40,39.56,1006.36,2033.77,3185.19,3102.99,3369.02,500.07,489.92,32.81,0000 0000 0000 0000 000000
2014-06-14 08:41:26,0.01,0.73,0.00,24.06,28.56,31.18,9.56,39.66,1006.38,2033.86,3185.00,3102.90,3368.98,500.46,490.40,32.86,0000 0000 0000 0000 000000
2014-06-14 08:46:28,0.02,0.73,0.00,24.03,28.53,31.15,9.38,39.48,1006.56,2033.97,3184.98,3102.62,3368.94,499.85,490.02,32.90,0000 0000 0000 0000 000000
2014-06-14 08:51:29,0.04,0.73,0.00,24.00,28.51,31.12,9.42,39.55,1006.78,2033.99,3184.59,3102.12,3368.44,500.06,490.30,32.94,0000 0000 0000 0000 000000
2014-06-14 08:56:30,0.01,0.73,0.00,23.97,28.49,31.11,9.35,39.43,1006.89,2033.99,3184.05,3102.01,3368.03,499.82,490.19,32.98,0000 0000 0000 0000 000000
2014-06-14 09:01:31,0.00,0.73,0.00,23.94,28.46,31.07,9.54,39.41,1007.24,2033.99,3184.00,3102.00,3368.00,499.97,490.51,33.02,0000 0000 0000 0000 000000
2014-06-14 09:06:32,0.00,0.73,0.00,23.91,28.44,31.04,9.45,39.42,1007.34,2033.99,3184.00,3102.00,3367.99,499.74,490.41,33.06,0000 0000 0000 0000 000000
2014-06-14 09:11:33,0.00,0.73,0.00,23.88,28.42,31.03,9.47,39.43,1007.33,2034.01,3184.00,3102.00,3367.99,500.12,490.72,33.10,0000 0000 0000 0000 000000
2014-06-14 09:16:34,0.00,0.73,0.00,23.85,28.40,30.99,9.46,39.45,1007.39,2034.03,3183.98,3101.99,3367.99,500.05,490.80,33.15,0000 0000 0000 0000 000000
2014-06-14 09:21:35,0.02,0.73,0.00,23.85,28.37,30.98,9.38,39.38,1007.72,2034.11,3183.91,3101.99,3367.99,499.91,490.80,33.19,0000 0000 0000 0000 000000
2014-06-14 09:26:37,0.03,0.73,0.00,23.82,28.35,30.95,9.47,39.43,1007.88,2034.38,3183.59,3101.98,3367.99,499.84,490.89,33.23,0000 0000 0000 0000 000000
2014-06-14 09:31:38,0.04,0.73,0.00,23.80,28.32,30.93,9.47,39.17,1008.02,2034.74,3183.35,3101.98,3367.98,499.94,491.11,33.27,0000 0000 0000 0000 000000
2014-06-14 09:36:39,0.01,0.73,0.00,23.78,28.30,30.88,9.43,39.27,1008.22,2034.92,3183.48,3101.99,3367.98,499.86,491.23,33.31,0000 0000 0000 0000 000000
2014-06-14 09:41:40,0.01,0.73,0.00,23.72,28.27,30.88,9.56,39.46,1008.33,2034.97,3183.24,3101.98,3367.97,500.07,491.50,33.35,0000 0000 0000 0000 000000
2014-06-14 09:46:41,0.00,0.73,0.00,23.70,28.25,30.86,9.53,39.35,1008.59,2034.99,3183.05,3101.99,3367.97,500.28,491.93,33.39,0000 0000 0000 0000 000000
2014-06-14 09:51:42,0.00,0.73,0.00,23.69,28.22,30.83,9.47,39.47,1008.72,2034.99,3183.01,3101.97,3367.94,500.16,491.81,33.44,0000 0000 0000 0000 000000
2014-06-14 09:56:43,0.00,0.73,0.00,23.67,28.20,30.81,9.42,39.34,1008.80,2034.99,3183.02,3101.99,3367.98,499.59,491.46,33.48,0000 0000 0000 0000 000000
2014-06-14 10:01:44,0.00,0.73,0.00,23.65,28.17,30.78,9.51,39.43,1008.80,2035.00,3183.04,3101.99,3367.98,500.24,491.98,33.52,0000 0000 0000 0000 000000
2014-06-14 10:06:45,0.00,0.73,0.00,23.62,28.16,30.74,9.50,39.58,1008.81,2035.02,3183.03,3102.01,3367.99,499.90,491.78,33.56,0000 0000 0000 0000 000000
2014-06-14 10:11:46,0.02,0.73,0.00,23.59,28.13,30.74,9.50,39.42,1008.81,2035.13,3183.03,3102.01,3367.99,499.89,491.89,33.60,0000 0000 0000 0000 000000
2014-06-14 10:16:47,0.00,0.74,0.00,23.58,28.11,30.72,9.49,39.47,1008.81,2035.26,3183.01,3102.01,3367.99,500.22,492.10,33.64,0000 0000 0000 0000 000000
2014-06-14 10:21:48,0.05,0.74,0.00,23.56,28.08,30.69,9.45,39.48,1008.80,2035.62,3183.02,3102.05,3367.99,499.71,491.74,33.69,0000 0000 0000 0000 000000
2014-06-14 10:26:49,0.02,0.74,0.00,23.54,28.06,30.67,9.51,39.48,1008.81,2035.95,3183.04,3102.23,3368.00,500.11,492.19,33.73,0000 0000 0000 0000 000000
2014-06-14 10:31:51,0.00,0.74,0.00,23.52,28.03,30.64,9.52,39.52,1008.82,2035.97,3183.03,3102.33,3368.02,500.03,492.15,33.77,0000 0000 0000 0000 000000
2014-06-14 10:36:52,-0.00,0.74,0.00,23.49,28.01,30.62,9.47,39.40,1008.82,2035.99,3183.00,3102.31,3368.02,500.19,492.14,33.81,0000 0000 0000 0000 000000
2014-06-14 10:41:52,-0.01,0.74,0.00,23.47,27.99,30.60,9.53,39.49,1008.82,2035.99,3183.01,3102.59,3368.03,499.90,491.98,33.85,0000 0000 0000 0000 000000
2014-06-14 10:46:54,0.00,0.74,0.00,23.44,27.96,30.58,9.55,39.42,1008.91,2035.99,3183.00,3102.69,3368.02,499.97,492.24,33.89,0000 0000 0000 0000 000000
2014-06-14 10:51:55,-0.00,0.74,0.00,23.42,27.94,30.56,9.55,39.34,1009.25,2036.01,3183.00,3102.88,3368.05,499.93,492.32,33.93,0000 0000 0000 0000 000000
2014-06-14 10:56:56,0.00,0.74,0.00,23.39,27.91,30.53,9.48,39.33,1009.28,2036.04,3183.00,3102.96,3368.14,500.06,492.42,33.98,0000 0000 0000 0000 000000
2014-06-14 11:01:57,0.00,0.74,0.00,23.36,27.89,30.51,9.50,39.36,1009.29,2036.08,3183.00,3102.97,3368.06,500.16,492.59,34.02,0000 0000 0000 0000 000000
2014-06-14 11:06:59,0.03,0.74,0.00,23.35,27.87,30.49,9.49,39.06,1009.32,2036.30,3183.00,3102.95,3368.03,499.74,492.30,34.06,0000 0000 0000 0000 000000
2014-06-14 11:11:59,0.04,0.74,0.00,23.32,27.85,30.47,9.53,39.44,1009.68,2036.63,3182.98,3102.95,3368.02,500.11,492.85,34.10,0000 0000 0000 0000 000000
2014-06-14 11:17:00,0.02,0.74,0.00,23.30,27.82,30.44,9.52,39.30,1009.78,2036.90,3182.98,3102.98,3368.06,499.82,492.65,34.14,0000 0000 0000 0000 000000
2014-06-14 11:22:01,0.01,0.74,0.00,23.27,27.80,30.42,9.46,39.29,1009.79,2036.97,3182.95,3102.98,3368.03,500.14,493.09,34.18,0000 0000 0000 0000 000000
2014-06-14 11:27:02,0.00,0.74,0.00,23.26,27.77,30.39,9.57,39.32,1010.03,2036.99,3182.87,3102.98,3368.03,500.05,493.08,34.22,0000 0000 0000 0000 000000
2014-06-14 11:32:03,0.00,0.74,0.00,23.25,27.75,30.38,9.45,39.41,1010.25,2036.99,3182.63,3102.98,3368.05,499.61,492.91,34.27,0000 0000 0000 0000 000000
2014-06-14 11:37:04,0.00,0.74,0.00,23.24,27.72,30.36,9.54,39.36,1010.27,2037.00,3182.41,3102.99,3368.04,499.96,493.03,34.31,0000 0000 0000 0000 000000
2014-06-14 11:42:05,0.01,0.74,0.00,23.21,27.70,30.34,9.49,39.29,1010.28,2037.02,3182.22,3102.99,3368.04,499.84,493.25,34.35,0000 0000 0000 0000 000000
2014-06-14 11:47:06,0.00,0.74,0.00,23.19,27.68,30.32,9.43,39.19,1010.27,2037.04,3182.09,3102.99,3368.05,499.72,492.91,34.39,0000 0000 0000 0000 000000
2014-06-14 11:52:07,-0.00,0.74,0.00,23.18,27.66,30.29,9.61,39.46,1010.29,2037.09,3182.04,3102.99,3368.02,500.27,493.55,34.43,0000 0000 0000 0000 000000
2014-06-14 11:57:08,0.01,0.74,0.00,23.17,27.63,30.27,9.49,39.26,1010.30,2037.14,3182.01,3102.99,3368.01,500.02,493.33,34.47,0000 0000 0000 0000 000000
2014-06-14 12:02:09,0.01,0.75,0.00,23.16,27.61,30.24,9.57,39.40,1010.29,2037.42,3182.00,3102.99,3368.00,500.26,493.72,34.51,0000 0000 0000 0000 000000
2014-06-14 12:07:10,0.06,0.75,0.00,23.15,27.60,30.23,9.50,39.42,1010.31,2037.82,3182.00,3102.99,3368.02,499.90,493.27,34.56,0000 0000 0000 0000 000000
2014-06-14 12:12:11,0.01,0.75,0.00,23.13,27.57,30.21,9.33,39.40,1010.62,2037.96,3182.00,3102.99,3368.02,499.60,493.09,34.60,0000 0000 0000 0000 000000
2014-06-14 12:17:12,0.00,0.75,0.00,23.09,27.55,30.20,9.50,39.40,1010.75,2037.98,3181.99,3103.00,3368.04,500.29,493.96,34.64,0000 0000 0000 0000 000000
2014-06-14 12:22:13,0.10,0.75,0.00,23.08,27.53,30.17,9.48,39.32,1010.77,2037.99,3180.30,3102.41,3367.40,499.52,493.35,34.68,0000 0000 0000 0000 000000
2014-06-14 12:27:14,0.02,0.75,0.00,23.23,27.51,30.12,9.52,39.27,1010.79,2037.99,3179.01,3101.93,3366.83,499.95,493.48,34.72,0000 0000 0000 0000 000000
2014-06-14 12:32:16,-0.00,0.75,0.00,23.54,27.50,30.08,9.54,39.33,1010.96,2037.99,3179.00,3101.96,3366.80,500.29,493.22,34.76,0000 0000 0000 0000 000000
2014-06-14 12:37:17,0.01,0.75,0.00,23.71,27.48,30.09,9.54,39.21,1011.22,2038.01,3179.00,3101.90,3366.50,500.35,493.14,34.81,0000 0000 0000 0000 000000
2014-06-14 12:42:18,0.02,0.75,0.00,23.69,27.47,30.10,9.56,39.20,1011.24,2038.01,3178.98,3101.73,3366.19,500.23,492.96,34.85,0000 0000 0000 0000 000000
2014-06-14 12:47:19,0.02,0.75,0.00,23.50,27.47,30.11,9.46,39.29,1011.24,2038.02,3178.68,3101.38,3366.07,499.67,492.96,34.89,0000 0000 0000 0000 000000
2014-06-14 12:52:21,0.01,0.76,0.00,23.27,27.47,30.16,9.52,39.18,1011.26,2038.02,3178.09,3101.08,3366.00,500.16,493.71,34.93,0000 0000 0000 0000 000000
2014-06-14 12:57:22,0.00,0.76,0.00,23.13,27.47,30.20,9.49,39.24,1011.26,2038.02,3178.00,3101.01,3366.00,499.69,493.62,34.97,0000 0000 0000 0000 000000
2014-06-14 13:02:23,0.00,0.76,0.00,23.04,27.46,30.21,9.59,39.19,1011.27,2038.03,3178.00,3101.01,3365.99,500.14,493.99,35.01,0000 0000 0000 0000 000000